CAPE
0 0 0 0 21 21 32 41 33 1 14 73 52 0 217 301 188 350 204 204 209 249 119 134 143 155 298 387 462 535 498 399 468 821 799 737 675 592 799 851 749 724 628 531
0 0 0 7 27 15 7 26 8 18 36 46 272 7 12 0 5 102 339 251 197 268 268 324 234 264 436 500 503 668 1043 880 636 815 867 803 778 846 768 731 653 417 122 335
0 0 0 2 17 3 8 20 16 14 64 122 312 22 0 43 359 22 396 362 277 299 341 304 320 409 515 553 667 957 1450 1739 1340 1172 1037 1125 1003 932 888 866 677 388 697 707
0 0 1 0 1 21 4 52 27 28 69 72 106 164 25 176 137 234 139 242 404 377 352 420 299 484 752 949 1124 1730 1689 1830 1715 1699 1836 1278 1074 928 849 776 711 316 845 913
0 0 2 0 12 44 36 0 29 41 47 44 67 48 193 16 21 35 0 50 225 492 424 252 322 287 660 1125 1497 1673 1696 2060 2162 1907 1759 1790 1290 1023 854 723 545 837 653 1134
0 0 1 1 19 0 0 18 24 21 17 36 15 20 140 13 10 0 0 0 124 444 464 399 435 441 683 1376 1630 2049 1982 2107 2342 2318 2239 1818 1750 1418 1436 1237 1020 1114 1060 1340
0 0 0 6 28 24 21 5 10 84 73 1 0 2 43 83 6 6 21 133 323 280 416 575 510 594 580 1330 1540 2216 2313 2208 2456 2510 2495 2252 1986 1809 1606 1291 1101 1001 900 1247
0 0 0 0 23 21 19 0 14 24 21 0 0 0 122 8 103 53 35 126 227 181 54 428 572 563 286 1249 1729 2455 2641 2669 2620 2812 3004 2880 2599 1924 1630 1293 1556 1512 1574 1070
0 0 0 0 2 4 35 15 6 0 7 0 0 5 48 75 106 29 340 1333 678 472 375 2 48 9 381 1843 2494 2876 2750 2481 2561 2747 2798 2811 2687 2232 1813 1722 1654 1651 1524 1271
0 0 0 0 0 11 33 28 23 2 0 0 0 16 157 0 0 0 239 1781 945 98 165 100 247 551 1992 2202 2703 2773 2550 2449 2159 2404 2656 2167 1913 1605 1185 1276 1304 1094 884 691
0 0 0 0 0 0 19 10 19 11 0 0 1 126 6 61 65 9 3 421 1812 1597 1188 1141 1768 1948 2052 2134 2135 2160 2263 2098 1897 1732 1708 1595 1135 1011 1077 897 888 804 738 392
0 0 0 0 0 0 19 15 0 7 23 2 24 167 195 27 0 17 365 759 1732 1784 1696 1658 1925 1926 1901 1993 1919 1700 1411 1212 1223 1314 945 880 780 731 572 483 430 362 121 342
0 0 0 0 0 3 11 26 11 3 0 13 40 235 133 2 0 0 93 779 1613 1750 1631 1686 1741 1684 1680 1511 1267 942 1062 1446 1472 795 532 238 107 108 301 412 470 551 563 404
0 0 0 0 4 0 0 0 0 0 0 13 72 104 197 52 1 0 0 649 1637 1755 1822 1918 1827 1699 1477 1061 821 1133 904 660 631 783 825 499 485 722 780 667 595 616 398 399
0 0 0 0 0 0 0 0 0 1 17 1 11 7 5 45 566 482 764 1618 1517 1776 2002 1907 1869 1764 1456 1039 1410 1244 980 910 1055 996 929 684 892 643 397 234 202 218 151 209
0 0 0 0 0 0 0 0 0 0 5 0 8 35 0 73 1089 1393 1489 1586 1656 1705 2131 2133 2020 1610 1246 1461 1627 1402 1179 1216 1114 738 679 548 432 212 109 17 0 0 0 0
0 0 0 0 0 0 0 0 1 1 16 1 15 2 0 20 892 1112 1578 1641 1671 1906 1913 1909 1869 1843 1701 1643 1665 1583 1371 1140 800 658 495 306 130 45 7 0 0 0 0 0
0 0 0 0 0 0 0 0 2 2 26 67 39 34 29 33 155 1313 1413 1508 1608 1650 1540 1432 1580 1858 1771 1648 1508 1306 1061 853 549 246 146 60 1 0 0 0 0 0 0 0
0 0 0 0 0 0 0 0 0 8 11 16 56 203 169 676 1047 1351 1395 1322 1436 1340 1342 1519 1573 1580 1421 1254 1248 1096 720 448 197 33 0 0 0 0 0 0 0 0 0 0
0 0 0 0 0 0 0 66 9 49 61 29 46 24 322 1252 1389 1197 967 1302 1464 1389 1411 1384 1360 1293 1263 1280 1218 1003 777 276 98 0 0 0 0 0 0 0 0 0 0 0
63 3 0 1 0 0 28 38 48 64 47 193 230 188 532 746 627 789 1198 1383 1458 1466 1442 1368 1306 1250 1242 1177 1101 606 213 10 0 0 0 0 0 0 0 0 0 0 0 0
39 35 163 193 99 31 191 218 71 19 6 131 209 575 411 1169 1099 1116 1375 1406 1422 1351 1272 1118 924 601 558 678 270 6 0 0 0 0 0 0 0 0 0 0 0 0 0 0
12 2 42 191 262 118 161 29 1 7 20 49 231 962 1385 1509 1527 1463 1544 1427 1275 1205 862 444 201 10 0 25 5 0 0 0 0 0 0 0 0 0 0 0 0 0 0 0
0 0 0 0 28 40 13 21 138 8 28 119 1283 1442 1574 1748 1802 1716 1537 1337 1233 843 410 101 0 0 0 0 0 0 0 0 0 0 0 0 0 0 0 0 0 0 0 0
0 0 0 0 33 8 25 93 72 59 43 831 960 1144 1815 1903 1848 1619 1370 1178 793 384 133 0 0 0 0 0 0 0 0 0 0 0 0 0 0 0 0 0 0 0 0 0
0 0 0 0 2 7 13 89 1 0 20 0 18 480 1568 1674 1647 1381 1077 713 336 101 5 0 0 0 0 0 0 0 0 0 0 0 0 0 0 0 0 0 0 0 0 0
CIN
-0 -0 -0 -0 -34 -40 -42 -66 -96 -291 -284 -150 -162 -0 -177 -80 -120 -38 -84 -59 -52 -47 -85 -90 -84 -100 -58 -46 -43 -57 -71 -86 -79 -71 -76 -73 -74 -80 -56 -42 -20 -41 -65 -82
-0 -0 -0 -17 -29 -74 -68 -60 -48 -146 -154 -181 -136 -154 -163 -9 -98 -235 -32 -92 -68 -56 -36 -49 -96 -92 -86 -62 -67 -81 -73 -90 -96 -79 -75 -62 -64 -51 -64 -62 -56 -107 -195 -123
-0 -0 -0 -1 -25 -69 -114 -103 -87 -79 -66 -141 -69 -112 -0 -324 -141 -279 -103 -55 -76 -61 -67 -58 -81 -89 -110 -88 -93 -93 -68 -56 -77 -69 -48 -45 -60 -60 -67 -77 -89 -146 -107 -93
-0 -0 -0 -0 -3 -18 -38 -44 -54 -82 -50 -18 -112 -40 -162 -159 -218 -91 -136 -123 -67 -58 -75 -51 -53 -59 -123 -81 -109 -100 -84 -73 -69 -38 -18 -42 -56 -59 -68 -78 -96 -148 -78 -54
-0 -0 -5 -0 -36 -6 -31 -0 -98 -92 -44 -35 -59 -48 -98 -184 -97 -109 -10 -179 -116 -41 -44 -72 -72 -50 -81 -79 -90 -99 -114 -99 -82 -66 -32 -22 -52 -73 -76 -81 -98 -78 -103 -38
-0 -0 -2 -32 -44 -5 -0 -28 -32 -55 -32 -29 -83 -82 -62 -92 -170 -0 -0 -0 -184 -51 -28 -62 -90 -79 -56 -68 -82 -109 -122 -111 -90 -77 -50 -42 -21 -27 -39 -55 -63 -50 -36 -16
-0 -0 -0 -0 -8 -40 -63 -67 -52 -26 -26 -7 -0 -22 -69 -55 -134 -79 -65 -91 -145 -177 -58 -71 -52 -56 -51 -79 -80 -106 -103 -101 -96 -85 -67 -40 -22 -17 -19 -31 -55 -52 -47 -28
-0 -0 -0 -0 -3 -31 -55 -0 -34 -66 -34 -0 -0 -0 -33 -70 -322 -155 -260 -275 -200 -223 -274 -121 -47 -188 -310 -65 -83 -95 -86 -68 -62 -44 -35 -19 -13 -24 -17 -14 -15 -14 -11 -19
-0 -0 -0 -0 -2 -7 -72 -34 -87 -0 -82 -0 -8 -130 -95 -128 -149 -113 -68 -72 -211 -257 -260 -34 -133 -398 -197 -69 -74 -73 -50 -27 -24 -21 -11 -6 -4 -7 -12 -8 -19 -17 -13 -14
-0 -0 -0 -0 -0 -20 -10 -72 -42 -4 -0 -0 -0 -133 -75 -0 -0 -0 -55 -45 -142 -303 -244 -324 -226 -168 -66 -75 -71 -47 -57 -49 -73 -39 -14 -25 -46 -52 -60 -31 -35 -38 -57 -84
-0 -0 -0 -0 -1 -7 -18 -35 -43 -105 -2 -0 -54 -96 -274 -203 -145 -321 -311 -215 -60 -91 -169 -168 -117 -146 -166 -166 -158 -134 -97 -83 -79 -86 -69 -50 -119 -111 -91 -88 -69 -61 -57 -83
-0 -0 -0 -0 -0 -0 -15 -11 -0 -10 -50 -100 -47 -44 -265 -277 -0 -168 -124 -155 -56 -113 -129 -137 -200 -228 -218 -203 -191 -168 -152 -153 -138 -94 -136 -117 -119 -119 -123 -128 -119 -109 -197 -55
-0 -0 -0 -0 -0 -12 -19 -27 -12 -21 -0 -15 -6 -106 -354 -84 -0 -0 -150 -178 -78 -107 -148 -179 -201 -212 -204 -199 -200 -216 -191 -119 -81 -166 -212 -296 -351 -347 -200 -126 -85 -55 -44 -48
-0 -0 -0 -0 -6 -0 -0 -0 -0 -0 -0 -15 -25 -143 -328 -277 -147 -0 -0 -241 -65 -95 -127 -159 -168 -177 -175 -210 -222 -170 -184 -208 -190 -129 -102 -165 -149 -80 -51 -50 -53 -45 -57 -52
-0 -0 -0 -0 -0 -0 -0 -0 -0 -14 -22 -2 -38 -45 -59 -303 -290 -283 -238 -69 -66 -67 -82 -108 -133 -140 -160 -201 -137 -134 -150 -143 -96 -80 -68 -95 -49 -77 -95 -114 -110 -86 -90 -59
-0 -0 -0 -0 -0 -0 -0 -0 -0 -0 -34 -0 -27 -54 -3 -222 -117 -81 -65 -67 -74 -56 -57 -90 -107 -133 -173 -132 -87 -93 -99 -79 -78 -130 -124 -127 -127 -168 -190 -240 -0 -0 -0 -0
-0 -0 -0 -0 -0 -0 -0 -0 -47 -18 -27 -16 -32 -25 -52 -151 -120 -99 -106 -81 -84 -56 -81 -110 -107 -115 -103 -79 -57 -50 -64 -82 -96 -103 -119 -162 -227 -278 -226 -0 -0 -0 -0 -0
-0 -0 -0 -0 -0 -0 -0 -0 -15 -6 -28 -64 -93 -172 -100 -115 -185 -125 -113 -88 -77 -80 -101 -114 -106 -59 -46 -70 -74 -92 -102 -112 -139 -226 -258 -302 -198 -0 -0 -0 -0 -0 -0 -0
-0 -0 -0 -0 -0 -0 -0 -0 -3 -9 -21 -89 -134 -215 -371 -88 -88 -109 -85 -84 -89 -108 -99 -79 -59 -52 -87 -118 -110 -107 -155 -185 -245 -391 -0 -0 -0 -0 -0 -0 -0 -0 -0 -0
-0 -0 -0 -0 -0 -0 -0 -79 -61 -26 -45 -305 -342 -189 -232 -116 -32 -46 -50 -54 -71 -73 -58 -65 -104 -98 -91 -74 -71 -98 -126 -210 -280 -0 -0 -0 -0 -0 -0 -0 -0 -0 -0 -0
-52 -37 -0 -2 -0 -0 -85 -91 -60 -18 -94 -280 -248 -362 -23 -54 -40 -48 -45 -54 -63 -62 -86 -90 -110 -94 -61 -50 -41 -126 -218 -99 -0 -0 -0 -0 -0 -0 -0 -0 -0 -0 -0 -0
-143 -119 -64 -35 -13 -7 -165 -87 -21 -181 -282 -178 -176 -297 -49 -48 -64 -69 -78 -108 -126 -116 -127 -146 -174 -199 -155 -99 -192 -140 -0 -0 -0 -0 -0 -0 -0 -0 -0 -0 -0 -0 -0 -0
-85 -17 -221 -192 -170 -285 -204 -218 -29 -269 -188 -219 -188 -101 -84 -83 -80 -92 -133 -153 -159 -175 -217 -290 -324 -424 -0 -168 -131 -0 -0 -0 -0 -0 -0 -0 -0 -0 -0 -0 -0 -0 -0 -0
-0 -0 -0 -12 -288 -315 -360 -243 -197 -280 -240 -295 -84 -67 -58 -86 -99 -127 -168 -197 -200 -210 -294 -377 -0 -0 -0 -0 -0 -0 -0 -0 -0 -0 -0 -0 -0 -0 -0 -0 -0 -0 -0 -0
-0 -0 -0 -0 -356 -336 -123 -226 -146 -190 -189 -85 -73 -173 -78 -103 -124 -167 -199 -196 -214 -268 -328 -0 -0 -0 -0 -0 -0 -0 -0 -0 -0 -0 -0 -0 -0 -0 -0 -0 -0 -0 -0 -0
-0 -0 -0 -0 -118 -118 -349 -423 -195 -0 -225 -0 -312 -178 -103 -111 -149 -178 -213 -249 -295 -348 -120 -0 -0 -0 -0 -0 -0 -0 -0 -0 -0 -0 -0 -0 -0 -0 -0 -0 -0 -0 -0 -0
Wind_Speed
29 22 22 20 17 13 12 10 15 17 17 15 15 20 16 21 20 21 21 21 21 22 22 23 22 22 22 20 19 18 16 16 15 13 12 12 11 10 9 8 5 5 20 13
27 23 14 13 10 10 8 10 10 2 9 10 14 15 9 21 23 20 20 20 20 21 20 22 22 21 21 20 19 17 16 15 16 13 12 10 11 11 10 10 12 14 14 14
27 26 23 12 7 20 9 18 8 7 10 17 14 11 13 14 14 18 16 15 21 20 20 22 21 21 20 22 21 20 18 16 15 14 13 10 10 9 10 10 10 11 12 13
32 29 12 27 16 4 6 10 13 15 12 11 17 15 9 11 12 9 21 19 23 21 19 21 20 18 20 21 19 19 17 15 14 15 13 11 10 10 9 9 8 8 10 10
32 29 19 28 24 19 3 4 13 15 21 8 16 16 14 13 9 13 20 14 17 21 20 20 20 20 19 20 18 18 16 14 12 13 12 11 10 9 8 8 7 8 8 7
35 31 9 24 28 17 17 18 22 20 24 15 18 19 15 10 4 8 8 11 27 20 19 19 19 19 16 19 18 15 14 11 11 10 9 8 8 8 7 6 6 5 5 4
35 35 30 24 19 19 23 19 24 22 18 21 25 22 19 14 2 9 13 13 27 25 13 10 3 16 12 15 15 13 12 9 9 8 6 6 5 6 5 5 4 4 4 2
33 33 32 26 11 12 17 24 18 23 24 28 27 21 16 20 16 22 25 10 16 3 2 12 19 10 22 13 12 10 9 8 7 5 4 3 3 2 1 3 3 2 2 1
30 33 28 26 26 10 12 15 16 15 18 25 22 16 20 15 14 16 18 14 18 15 11 16 14 12 19 11 11 10 9 7 6 5 5 4 3 3 2 6 7 7 6 8
38 34 33 31 5 4 9 6 10 18 23 27 27 23 17 7 10 8 12 17 19 19 18 18 17 19 20 17 15 13 12 12 15 14 7 9 13 16 20 12 13 16 18 18
33 34 35 31 15 10 15 4 16 11 14 19 24 20 15 5 6 7 13 23 15 16 17 16 17 18 16 17 16 16 16 17 17 17 15 15 17 19 19 19 19 21 20 18
9 25 34 33 32 19 15 10 7 10 19 21 16 19 8 9 9 10 10 16 12 13 13 14 15 15 16 16 17 17 17 17 18 17 16 17 19 20 21 21 21 21 21 22
27 23 31 33 30 7 6 15 13 23 16 11 23 12 6 7 12 12 6 6 7 10 10 11 13 14 15 16 17 16 17 17 17 18 18 19 19 20 21 22 22 23 22 21
23 26 22 24 21 20 27 28 29 29 31 24 17 4 2 4 7 11 15 18 12 9 9 10 12 14 15 16 16 17 17 18 18 18 18 19 18 19 20 21 22 23 23 23
22 31 32 32 30 26 12 32 22 9 5 29 19 15 7 6 8 15 18 17 9 9 9 10 11 12 14 14 15 16 16 16 17 18 18 19 19 20 20 21 22 23 23 23
25 33 31 32 25 17 15 29 30 20 24 24 8 9 5 10 9 11 11 12 10 12 11 9 11 12 12 12 12 14 15 15 16 17 18 18 18 20 21 22 23 23 24 25
19 27 30 34 31 25 16 32 21 9 22 19 8 4 6 7 11 8 10 12 13 14 11 9 9 10 10 10 12 13 15 15 16 18 18 18 19 20 21 22 23 24 25 25
16 22 28 29 32 34 26 30 28 25 12 8 9 2 5 4 4 9 9 12 13 10 9 9 8 9 10 11 12 14 14 16 17 18 19 19 19 20 21 22 23 25 25 26
19 19 23 25 32 30 32 31 27 23 11 12 8 4 3 23 4 5 12 12 12 11 10 10 10 10 10 11 13 14 15 15 16 17 18 19 19 20 21 23 24 25 26 26
31 16 17 18 24 34 33 25 24 24 16 18 2 1 9 16 4 6 11 11 12 12 10 9 10 11 12 13 13 13 14 14 16 17 18 19 20 20 22 23 25 26 26 25
27 30 29 27 26 26 25 24 25 21 16 8 5 6 18 2 8 10 13 12 12 10 10 10 10 10 11 11 11 13 14 16 16 17 18 20 22 22 21 23 24 24 23 24
24 25 26 26 28 30 26 25 23 13 8 4 6 9 8 15 16 15 14 12 12 11 10 9 10 12 14 13 13 14 16 16 18 18 19 21 21 21 21 23 22 22 22 23
26 22 24 21 21 22 24 14 11 11 8 9 14 0 8 11 12 12 12 11 11 10 10 10 11 13 15 15 12 15 16 17 18 19 20 19 19 18 17 18 20 20 22 22
23 23 26 25 24 26 28 29 18 11 10 12 4 5 7 6 9 10 11 10 10 10 10 10 11 12 13 15 16 16 18 19 19 19 19 18 18 18 17 17 19 21 21 24
21 25 31 30 28 33 38 32 19 9 9 4 6 8 7 6 6 7 8 9 9 10 10 10 11 11 13 14 16 18 19 20 21 20 20 20 21 22 22 21 21 22 21 22
17 20 28 30 26 30 43 39 22 7 3 6 7 5 8 6 6 8 8 9 9 11 11 12 12 12 14 15 17 19 19 19 20 22 23 23 24 23 24 25 27 26 24 25
Wind_Direction
204 187 191 294 312 1 46 44 79 249 191 95 116 109 182 200 218 194 146 137 144 145 144 142 142 135 136 131 132 134 132 143 138 128 127 132 146 146 141 141 112 43 209 179
203 188 153 327 4 29 29 27 87 197 156 95 119 132 125 265 238 218 149 146 148 154 144 147 146 137 138 138 138 136 131 134 140 133 126 119 141 152 147 141 160 173 176 181
199 191 203 308 5 320 319 309 179 126 174 167 123 108 77 78 166 193 149 148 155 152 149 152 149 146 145 149 148 146 142 132 129 132 126 104 115 104 115 136 151 163 170 174
230 220 317 263 176 60 357 6 208 183 150 52 144 9 65 122 159 153 186 172 169 158 150 153 150 148 150 152 146 143 136 132 129 130 121 119 120 125 114 125 132 150 159 164
210 222 284 257 209 276 345 72 188 194 230 356 313 328 14 12 102 162 187 164 168 162 154 150 152 152 145 151 147 146 140 128 120 126 133 126 132 133 113 102 126 140 143 149
226 244 283 213 231 314 315 309 284 309 276 305 321 330 342 353 96 154 135 266 219 177 159 154 154 152 137 149 149 144 141 133 120 118 124 132 134 130 117 118 104 109 108 73
240 240 225 274 288 299 292 298 292 301 310 294 303 316 343 341 105 114 89 33 208 199 152 141 171 143 129 146 152 150 143 129 126 114 120 132 121 129 137 109 77 112 137 91
221 236 226 220 301 311 291 287 304 303 297 288 306 304 334 2 2 265 235 145 199 162 189 341 251 2 264 143 138 134 131 110 115 82 78 114 128 110 140 161 107 122 115 52
252 219 221 201 238 304 299 304 310 322 322 291 296 324 313 346 357 295 61 29 49 75 93 170 172 88 186 110 99 100 100 80 67 75 98 90 30 13 329 5 26 13 360 354
229 255 246 246 189 202 208 306 313 310 304 286 286 305 318 347 93 154 62 7 51 71 94 116 108 134 100 74 75 62 43 24 8 359 31 13 353 350 342 12 5 357 351 353
220 245 238 259 275 183 193 248 305 321 322 309 282 316 338 339 135 83 328 299 18 50 77 86 73 65 50 49 45 36 27 18 11 4 7 359 355 350 354 352 352 350 354 356
198 270 251 244 246 197 187 194 228 300 302 295 327 314 34 59 76 68 35 342 1 42 52 51 53 37 30 27 24 23 24 23 21 20 18 8 354 351 359 359 357 356 358 1
257 266 260 264 273 299 176 182 228 283 298 308 312 323 54 82 0 360 119 16 24 55 46 37 32 31 29 26 23 28 31 37 39 34 29 22 14 12 12 10 10 8 9 13
266 266 267 267 293 283 270 270 270 267 273 294 312 335 329 8 31 103 115 136 103 63 60 47 40 33 35 35 43 45 43 42 43 40 33 25 26 22 18 19 14 11 9 9
270 261 252 261 278 283 291 246 278 227 276 277 302 306 180 157 111 134 136 120 97 87 78 68 51 38 39 51 57 48 42 43 39 31 27 25 21 22 18 14 11 9 5 4
272 255 256 263 283 299 296 256 252 281 280 292 320 335 112 129 110 108 108 109 112 123 107 79 57 52 53 65 59 48 48 38 35 28 20 22 17 12 8 5 2 0 357 354
281 258 260 260 265 281 284 227 230 310 283 291 308 41 113 121 126 95 107 115 119 124 110 84 68 55 69 74 52 41 34 31 24 15 14 11 5 359 356 355 353 350 349 348
276 262 262 265 263 268 278 267 269 277 307 319 319 308 142 124 98 93 98 109 114 104 88 70 52 72 81 55 46 32 30 23 18 16 11 6 3 359 358 355 352 349 348 345
269 266 274 267 263 275 271 266 283 299 297 309 300 166 66 218 44 43 113 106 105 96 80 75 71 59 57 51 48 43 38 35 24 18 12 6 2 359 355 350 348 346 344 343
268 274 266 279 270 267 262 279 284 280 288 317 90 111 132 154 110 115 120 101 96 92 84 72 49 49 48 54 52 47 36 28 19 15 9 5 360 356 352 349 347 345 344 344
268 266 267 268 274 280 270 278 275 280 288 319 349 326 259 92 105 107 101 95 91 78 75 68 49 37 33 39 40 33 27 13 14 11 7 1 355 352 352 350 348 347 347 346
279 274 272 275 276 277 282 275 277 280 292 357 30 75 164 52 67 86 86 77 77 71 61 49 24 13 10 23 31 20 10 10 7 4 359 357 357 356 354 353 354 352 350 345
274 281 279 277 272 287 301 293 287 277 271 296 301 347 49 64 72 73 67 77 68 54 48 40 25 14 10 9 23 8 7 5 1 359 358 360 1 2 2 3 358 355 352 354
282 287 275 276 277 273 288 278 295 287 285 297 326 37 331 48 51 62 61 52 50 49 44 43 32 24 13 14 14 9 4 1 0 359 360 3 2 1 0 358 355 351 350 347
289 283 274 275 278 279 266 274 270 295 290 313 352 330 116 77 51 54 46 43 45 43 40 40 36 30 19 19 11 9 5 2 359 359 359 358 358 358 357 356 353 350 350 348
296 309 297 284 284 278 257 255 209 286 265 184 125 162 116 78 73 74 51 52 50 40 39 35 34 26 17 14 9 6 8 7 2 358 357 357 355 358 355 353 350 350 351 348